Weather History for Corpus Christi, TX

Change the Weather History Date:

Tuesday, September 3, 2013

  Actual Average Record
Temperature  
Mean Temperature 87 °F 83 °F  
Max Temperature 98 °F 93 °F 106 °F (2011)
Min Temperature 75 °F 74 °F 67 °F (1888)
Degree Days  
Heating Degree Days 0 0  
Month to date heating degree days 0 0  
Since 1 July heating degree days 0 0  
Cooling Degree Days 22 18  
Month to date cooling degree days 67 56  
Year to date cooling degree days 3080 2617  
Growing Degree Days 36 (Base 50)    
Moisture  
Dew Point 71 °F    
Average Humidity 63    
Maximum Humidity 87    
Minimum Humidity 38    
Precipitation  
Precipitation 0.00 in 0.17 in 3.63 in (1967)
Month to date precipitation T 0.50  
Year to date precipitation 11.01 19.84  
Snow  
Snow 0.00 in - - ()
Month to date snowfall 0.0  
Since 1 July snowfall 0.0  
Since 1 September snowfall 0.0  
Snow Depth 0.00 in    
Sea Level Pressure  
Sea Level Pressure 29.93 in    
Wind  
Wind Speed 6 mph (SE)    
Max Wind Speed 16 mph    
Max Gust Speed 24 mph    
Visibility 10 miles    
Events Thunderstorm    
T = Trace of Precipitation, MM = Missing Value Source: NWS Daily Summary

Daily Weather History Graph

Daily Weather History Graph

Search for Another Location

Airport:

Trip Planner

Search our weather history database for the weather conditions in past years. The results will help you decide how hot, cold, wet, or windy it might be!

Date:

Astronomy

Sep. 03, 2013 Rise Set
Actual Time 7:09 AM CDT 7:48 PM CDT
Civil Twilight 6:46 AM CDT 8:11 PM CDT
Nautical Twilight 6:18 AM CDT 8:39 PM CDT
Astronomical Twilight 5:49 AM CDT 9:08 PM CDT
Moon 5:29 AM CDT (9/3) 6:34 PM CDT (9/3)
Length of Visible Light 13h 25m
Length of Day
12h 38m
Waning Crescent, 3% of the Moon is Illuminated
Sep 3
Waning Crescent
Sep 5
New
Sep 12
First Quarter
Sep 19
Full
Sep 26
Last Quarter

Hourly Weather History & Observations

Time (CDT) Temp. Heat Index Dew Point Humidity Pressure Visibility Wind Dir Wind Speed Gust Speed Precip Events Conditions
12:51 AM 80.1 °F 83.8 °F 72.0 °F 76% 29.94 in 10.0 mi SE 3.5 mph - N/A   Partly Cloudy
1:51 AM 79.0 °F - 72.0 °F 79% 29.93 in 10.0 mi South 4.6 mph - N/A   Partly Cloudy
2:51 AM 77.0 °F - 71.1 °F 82% 29.92 in 10.0 mi South 4.6 mph - N/A   Partly Cloudy
3:51 AM 77.0 °F - 72.0 °F 84% 29.91 in 10.0 mi Calm Calm - N/A   Partly Cloudy
4:51 AM 75.9 °F - 70.0 °F 82% 29.92 in 10.0 mi West 3.5 mph - N/A   Partly Cloudy
5:51 AM 75.9 °F - 72.0 °F 87% 29.92 in 10.0 mi Calm Calm - N/A   Partly Cloudy
6:51 AM 75.9 °F - 71.1 °F 85% 29.94 in 10.0 mi North 5.8 mph - N/A   Partly Cloudy
7:51 AM 78.1 °F - 73.0 °F 84% 29.95 in 10.0 mi North 4.6 mph - N/A   Partly Cloudy
8:51 AM 84.9 °F 92.1 °F 73.9 °F 69% 29.98 in 10.0 mi Calm Calm - N/A   Partly Cloudy
9:51 AM 88.0 °F 95.6 °F 73.0 °F 61% 29.99 in 10.0 mi Calm Calm - N/A   Partly Cloudy
10:51 AM 91.9 °F 96.9 °F 69.1 °F 47% 29.99 in 10.0 mi SSE 4.6 mph - N/A   Scattered Clouds
11:51 AM 91.0 °F 98.2 °F 72.0 °F 53% 29.99 in 10.0 mi Variable 4.6 mph - N/A   Scattered Clouds
12:51 PM 93.0 °F 97.4 °F 68.0 °F 44% 29.98 in 10.0 mi NE 5.8 mph 16.1 mph N/A   Mostly Cloudy
1:51 PM 97.0 °F 101.0 °F 66.9 °F 37% 29.95 in 10.0 mi East 8.1 mph - N/A   Scattered Clouds
2:51 PM 96.1 °F 101.0 °F 68.0 °F 40% 29.94 in 10.0 mi East 8.1 mph 17.3 mph N/A   Scattered Clouds
3:04 PM 96.8 °F 101.8 °F 68.0 °F 39% 29.93 in 10.0 mi ESE 12.7 mph - N/A Thunderstorm Thunderstorm
3:51 PM 97.0 °F 102.8 °F 69.1 °F 40% 29.92 in 10.0 mi East 9.2 mph - N/A Thunderstorm Thunderstorm
4:29 PM 96.8 °F 101.8 °F 68.0 °F 39% 29.90 in 10.0 mi SE 11.5 mph 17.3 mph N/A   Scattered Clouds
4:51 PM 96.1 °F 101.0 °F 68.0 °F 40% 29.90 in 10.0 mi SE 10.4 mph - N/A   Scattered Clouds
5:51 PM 93.9 °F 100.3 °F 70.0 °F 46% 29.89 in 10.0 mi SE 11.5 mph 19.6 mph N/A   Partly Cloudy
6:51 PM 91.9 °F 97.4 °F 70.0 °F 48% 29.89 in 10.0 mi SE 10.4 mph - N/A   Partly Cloudy
7:51 PM 88.0 °F 93.8 °F 71.1 °F 57% 29.89 in 10.0 mi SE 10.4 mph - N/A   Partly Cloudy
8:51 PM 86.0 °F 93.8 °F 73.9 °F 67% 29.92 in 10.0 mi SSE 10.4 mph - N/A   Partly Cloudy
9:51 PM 84.9 °F 92.1 °F 73.9 °F 69% 29.93 in 10.0 mi SSE 6.9 mph - N/A   Partly Cloudy
10:51 PM 82.9 °F 88.8 °F 73.0 °F 72% 29.93 in 10.0 mi South 4.6 mph - N/A   Partly Cloudy
11:51 PM 81.0 °F 85.2 °F 72.0 °F 74% 29.94 in 10.0 mi SSE 3.5 mph - N/A   Partly Cloudy